| time (UTC) | temp F | wind direction | speed MPH | gust MPH | rain 1hr in | rain 24hr in | rain mn in | humidity % | barometer mb |
| 20260507132541 | 60 | 357 | 1.0 | 3.0 | 0.06 | 0.74 | 0.74 | 92 | 1008.6 |
| 20260507131532 | 59 | 21 | 5.0 | 10.0 | 0.13 | 0.74 | 0.74 | 94 | 1008.8 |
| 20260507130545 | 62 | 45 | 1.0 | 2.0 | 0.27 | 0.73 | 0.73 | 96 | 1009.0 |
| 20260507125517 | 62 | 0.0 | 1.0 | 0.32 | 0.73 | 0.73 | 96 | 1008.7 | |
| 20260507124609 | 60 | 326 | 1.0 | 4.0 | 0.35 | 0.72 | 0.72 | 95 | 1008.8 |
| 20260507123602 | 59 | 180 | 0.0 | 2.0 | 0.47 | 0.70 | 0.70 | 94 | 1009.1 |
| 20260507122555 | 58 | 146 | 1.0 | 4.0 | 0.52 | 0.69 | 0.69 | 93 | 1009.1 |
| 20260507121548 | 57 | 215 | 2.0 | 5.0 | 0.47 | 0.61 | 0.61 | 92 | 1009.2 |
| 20260507120539 | 56 | 180 | 4.0 | 7.0 | 0.33 | 0.46 | 0.46 | 90 | 1009.2 |
| 20260507115551 | 56 | 146 | 10.0 | 15.0 | 0.28 | 0.41 | 0.41 | 90 | 1009.1 |
| 20260507114523 | 58 | 172 | 11.0 | 17.0 | 0.24 | 0.37 | 0.37 | 89 | 1010.0 |
| 20260507113616 | 60 | 157 | 5.0 | 13.0 | 0.11 | 0.22 | 0.22 | 87 | 1009.6 |
| 20260507112609 | 60 | 272 | 3.0 | 6.0 | 0.05 | 0.17 | 0.17 | 87 | 1009.1 |
| 20260507111622 | 62 | 230 | 3.0 | 5.0 | 0.04 | 0.14 | 0.14 | 90 | 1009.2 |
| 20260507110554 | 63 | 38 | 6.0 | 11.0 | 0.02 | 0.13 | 0.13 | 91 | 1009.0 |
| 20260507105607 | 63 | 48 | 4.0 | 8.0 | 0.02 | 0.13 | 0.13 | 91 | 1008.9 |
| 20260507104557 | 63 | 47 | 7.0 | 11.0 | 0.02 | 0.13 | 0.13 | 92 | 1008.9 |
| 20260507103550 | 63 | 45 | 5.0 | 11.0 | 0.01 | 0.12 | 0.12 | 92 | 1009.2 |
| 20260507102522 | 62 | 11 | 7.0 | 10.0 | 0.02 | 0.12 | 0.12 | 92 | 1009.3 |
| 20260507101614 | 62 | 32 | 4.0 | 8.0 | 0.01 | 0.11 | 0.11 | 91 | 1009.3 |
| 20260507100606 | 62 | 15 | 3.0 | 9.0 | 0.02 | 0.11 | 0.11 | 91 | 1009.1 |
| 20260507095619 | 62 | 29 | 7.0 | 11.0 | 0.02 | 0.11 | 0.11 | 91 | 1009.1 |
| 20260507094611 | 62 | 29 | 6.0 | 11.0 | 0.04 | 0.11 | 0.11 | 91 | 1009.1 |
| 20260507093543 | 62 | 19 | 5.0 | 8.0 | 0.04 | 0.11 | 0.11 | 90 | 1008.9 |
| 20260507092535 | 62 | 37 | 8.0 | 13.0 | 0.02 | 0.09 | 0.09 | 90 | 1008.9 |
| 20260507091548 | 62 | 47 | 9.0 | 14.0 | 0.04 | 0.09 | 0.09 | 91 | 1009.1 |
| 20260507090521 | 62 | 90 | 7.0 | 8.0 | 0.06 | 0.08 | 0.08 | 91 | 1009.2 |
| 20260507085613 | 62 | 35 | 5.0 | 10.0 | 0.07 | 0.08 | 0.08 | 91 | 1009.2 |
| 20260507084605 | 62 | 31 | 4.0 | 7.0 | 0.07 | 0.07 | 0.07 | 91 | 1009.1 |
| 20260507083557 | 62 | 35 | 6.0 | 9.0 | 0.07 | 0.07 | 0.07 | 91 | 1009.1 |
| 20260507082550 | 62 | 38 | 4.0 | 8.0 | 0.07 | 0.07 | 0.07 | 90 | 1009.2 |
| 20260507081542 | 63 | 54 | 6.0 | 9.0 | 0.06 | 0.06 | 0.06 | 87 | 1009.1 |
| 20260507080534 | 64 | 90 | 6.0 | 8.0 | 0.02 | 0.02 | 0.02 | 80 | 1009.1 |
| 20260507075527 | 65 | 55 | 7.0 | 12.0 | 0.01 | 0.01 | 0.01 | 77 | 1008.9 |
| 20260507074520 | 65 | 36 | 7.0 | 12.0 | 0.00 | 0.00 | 0.00 | 75 | 1009.0 |
| 20260507073612 | 65 | 40 | 9.0 | 15.0 | 0.00 | 0.00 | 0.00 | 75 | 1008.9 |
| 20260507072604 | 65 | 34 | 7.0 | 11.0 | 0.00 | 0.00 | 0.00 | 76 | 1008.8 |
| 20260507071557 | 65 | 40 | 7.0 | 14.0 | 0.00 | 0.00 | 0.00 | 78 | 1008.9 |
| 20260507070609 | 64 | 36 | 7.0 | 11.0 | 0.00 | 0.00 | 0.00 | 80 | 1008.7 |
| 20260507065541 | 64 | 30 | 7.0 | 15.0 | 0.00 | 0.00 | 0.00 | 80 | 1008.5 |
| 20260507064553 | 64 | 31 | 7.0 | 13.0 | 0.00 | 0.00 | 0.00 | 76 | 1008.5 |
| 20260507063547 | 64 | 33 | 3.0 | 9.0 | 0.00 | 0.00 | 0.00 | 75 | 1008.2 |
| 20260507062518 | 64 | 12 | 2.0 | 4.0 | 0.00 | 0.00 | 0.00 | 75 | 1008.2 |
| 20260507061611 | 64 | 1 | 2.0 | 4.0 | 0.00 | 0.00 | 0.00 | 75 | 1008.3 |
| 20260507060603 | 63 | 0 | 3.0 | 6.0 | 0.00 | 0.00 | 0.00 | 79 | 1008.3 |
| 20260507055555 | 63 | 0 | 2.0 | 4.0 | 0.00 | 0.00 | 0.00 | 79 | 1008.2 |
| 20260507054548 | 63 | 11 | 1.0 | 3.0 | 0.00 | 0.00 | 0.00 | 80 | 1008.3 |
| 20260507053540 | 63 | 45 | 1.0 | 4.0 | 0.00 | 0.00 | 0.00 | 80 | 1008.3 |
| 20260507052552 | 63 | 0 | 1.0 | 3.0 | 0.00 | 0.00 | 0.00 | 80 | 1008.1 |
| 20260507051526 | 63 | 17 | 1.0 | 3.0 | 0.00 | 0.00 | 0.00 | 80 | 1008.0 |
| 20260507050517 | 64 | 0 | 2.0 | 2.0 | 0.00 | 0.00 | 0.00 | 80 | 1007.9 |
| 20260507045611 | 64 | 41 | 5.0 | 9.0 | 0.00 | 0.00 | 0.00 | 80 | 1007.9 |
| 20260507044602 | 64 | 26 | 5.0 | 8.0 | 0.00 | 0.00 | 0.00 | 80 | 1007.8 |
| 20260507043556 | 64 | 45 | 4.0 | 8.0 | 0.00 | 0.00 | 0.00 | 80 | 1008.0 |
| 20260507042547 | 64 | 38 | 6.0 | 9.0 | 0.00 | 0.00 | 0.00 | 80 | 1007.9 |
| 20260507041539 | 64 | 28 | 6.0 | 10.0 | 0.00 | 0.00 | 0.00 | 79 | 1007.8 |
| 20260507040531 | 63 | 31 | 6.0 | 10.0 | 0.00 | 0.00 | 0.00 | 81 | 1008.0 |
| 20260507035544 | 63 | 36 | 3.0 | 7.0 | 0.00 | 0.00 | 0.00 | 80 | 1008.0 |
| 20260507034517 | 63 | 45 | 2.0 | 5.0 | 0.00 | 0.00 | 0.00 | 78 | 1007.9 |
| 20260507033609 | 63 | 338 | 1.0 | 4.0 | 0.00 | 0.00 | 0.00 | 77 | 1007.7 |
| 20260507032601 | 63 | 0 | 2.0 | 4.0 | 0.00 | 0.00 | 0.00 | 77 | 1007.7 |
| 20260507031554 | 63 | 0 | 0.0 | 3.0 | 0.00 | 0.00 | 0.00 | 78 | 1007.9 |
| 20260507030546 | 63 | 4 | 2.0 | 4.0 | 0.00 | 0.00 | 0.00 | 78 | 1008.0 |
| 20260507025539 | 63 | 342 | 1.0 | 4.0 | 0.00 | 0.00 | 0.00 | 78 | 1008.0 |
| 20260507024531 | 63 | 24 | 1.0 | 4.0 | 0.00 | 0.00 | 0.00 | 79 | 1007.9 |
| 20260507023524 | 63 | 354 | 2.0 | 4.0 | 0.00 | 0.00 | 0.00 | 80 | 1008.1 |
| 20260507022516 | 63 | 0 | 2.0 | 4.0 | 0.00 | 0.00 | 0.00 | 80 | 1008.2 |
| 20260507021609 | 63 | 344 | 1.0 | 4.0 | 0.00 | 0.00 | 0.00 | 81 | 1008.1 |
| 20260507020622 | 63 | 0 | 2.0 | 3.0 | 0.00 | 0.00 | 0.00 | 81 | 1008.2 |
| 20260507015554 | 63 | 357 | 2.0 | 4.0 | 0.00 | 0.00 | 0.00 | 81 | 1008.3 |
| 20260507014546 | 63 | 349 | 2.0 | 4.0 | 0.00 | 0.00 | 0.00 | 79 | 1008.5 |
| 20260507013539 | 64 | 0 | 1.0 | 4.0 | 0.00 | 0.00 | 0.00 | 77 | 1008.7 |
| 20260507012532 | 63 | 0 | 0.0 | 2.0 | 0.00 | 0.00 | 0.00 | 79 | 1008.8 |
| 20260507011545 | 63 | 0 | 0.0 | 3.0 | 0.00 | 0.00 | 0.00 | 80 | 1008.7 |
| 20260507010517 | 63 | 0 | 1.0 | 3.0 | 0.00 | 0.00 | 0.00 | 80 | 1008.7 |
| 20260507005611 | 63 | 0 | 2.0 | 4.0 | 0.00 | 0.00 | 0.00 | 79 | 1008.8 |
| 20260507004602 | 64 | 0 | 2.0 | 3.0 | 0.00 | 0.00 | 0.00 | 75 | 1008.7 |
| 20260507003555 | 64 | 0 | 1.0 | 2.0 | 0.00 | 0.00 | 0.00 | 75 | 1008.7 |
| 20260507002548 | 64 | 0 | 0.0 | 1.0 | 0.00 | 0.00 | 0.00 | 75 | 1008.8 |
| 20260507001540 | 64 | 0 | 0.0 | 2.0 | 0.00 | 0.00 | 0.00 | 74 | 1008.7 |
| 20260507000532 | 64 | 0 | 2.0 | 3.0 | 0.00 | 0.00 | 0.00 | 73 | 1008.7 |
| 20260506235525 | 64 | 0 | 1.0 | 2.0 | 0.00 | 0.00 | 0.00 | 73 | 1008.7 |
| 20260506234517 | 64 | 41 | 1.0 | 3.0 | 0.00 | 0.00 | 0.00 | 73 | 1008.9 |
| 20260506233710 | 64 | 45 | 3.0 | 4.0 | 0.00 | 0.00 | 0.00 | 73 | 1009.0 |
| 20260506232603 | 65 | 45 | 3.0 | 7.0 | 0.00 | 0.00 | 0.00 | 73 | 1009.1 |
| 20260506231617 | 65 | 19 | 3.0 | 6.0 | 0.00 | 0.00 | 0.00 | 73 | 1009.1 |
| 20260506230547 | 64 | 35 | 3.0 | 5.0 | 0.00 | 0.00 | 0.00 | 73 | 1009.2 |
| 20260506225540 | 65 | 40 | 2.0 | 4.0 | 0.00 | 0.00 | 0.00 | 73 | 1009.2 |
| 20260506224533 | 65 | 45 | 2.0 | 5.0 | 0.00 | 0.00 | 0.00 | 72 | 1009.2 |
| 20260506223526 | 65 | 8 | 2.0 | 4.0 | 0.00 | 0.00 | 0.00 | 73 | 1009.2 |
| 20260506222518 | 65 | 33 | 3.0 | 8.0 | 0.00 | 0.00 | 0.00 | 73 | 1009.0 |
| 20260506221610 | 65 | 45 | 4.0 | 6.0 | 0.00 | 0.00 | 0.00 | 72 | 1008.9 |
| 20260506220603 | 65 | 45 | 3.0 | 4.0 | 0.00 | 0.00 | 0.00 | 72 | 1009.1 |
| 20260506215556 | 65 | 35 | 3.0 | 5.0 | 0.00 | 0.00 | 0.00 | 71 | 1009.1 |
| 20260506214607 | 65 | 45 | 3.0 | 7.0 | 0.00 | 0.00 | 0.00 | 72 | 1009.4 |
| 20260506213539 | 65 | 45 | 3.0 | 5.0 | 0.00 | 0.00 | 0.00 | 72 | 1009.4 |
| 20260506212531 | 65 | 64 | 3.0 | 7.0 | 0.00 | 0.00 | 0.00 | 72 | 1009.7 |
| 20260506211523 | 65 | 45 | 2.0 | 5.0 | 0.00 | 0.00 | 0.00 | 72 | 1009.6 |
| 20260506210617 | 65 | 45 | 3.0 | 4.0 | 0.00 | 0.00 | 0.00 | 73 | 1009.5 |
| 20260506205608 | 65 | 81 | 2.0 | 3.0 | 0.00 | 0.00 | 0.00 | 73 | 1009.5 |
| 20260506204620 | 65 | 128 | 2.0 | 4.0 | 0.00 | 0.00 | 0.00 | 73 | 1009.4 |
| 20260506203552 | 65 | 60 | 2.0 | 4.0 | 0.00 | 0.00 | 0.00 | 72 | 1009.4 |
| 20260506202545 | 65 | 90 | 2.0 | 4.0 | 0.00 | 0.00 | 0.00 | 73 | 1009.3 |
| 20260506201556 | 65 | 82 | 2.0 | 4.0 | 0.00 | 0.00 | 0.00 | 72 | 1009.2 |
| 20260506200548 | 65 | 45 | 2.0 | 4.0 | 0.00 | 0.00 | 0.00 | 71 | 1009.0 |
| 20260506195520 | 65 | 105 | 2.0 | 7.0 | 0.00 | 0.00 | 0.00 | 72 | 1008.8 |
| 20260506194613 | 65 | 58 | 4.0 | 7.0 | 0.00 | 0.00 | 0.00 | 72 | 1008.7 |
| 20260506193606 | 65 | 129 | 3.0 | 6.0 | 0.00 | 0.00 | 0.00 | 72 | 1008.6 |
| 20260506192557 | 65 | 71 | 3.0 | 6.0 | 0.00 | 0.00 | 0.00 | 72 | 1008.4 |
| 20260506191550 | 65 | 62 | 3.0 | 5.0 | 0.00 | 0.00 | 0.00 | 72 | 1008.4 |
| 20260506190541 | 65 | 135 | 2.0 | 4.0 | 0.00 | 0.00 | 0.00 | 71 | 1008.5 |
| 20260506185533 | 65 | 77 | 2.0 | 4.0 | 0.00 | 0.00 | 0.00 | 71 | 1008.3 |
| 20260506184526 | 66 | 83 | 4.0 | 8.0 | 0.00 | 0.00 | 0.00 | 71 | 1008.2 |
| 20260506183517 | 66 | 116 | 4.0 | 7.0 | 0.00 | 0.00 | 0.00 | 70 | 1008.0 |
| 20260506182610 | 66 | 114 | 3.0 | 8.0 | 0.00 | 0.00 | 0.00 | 70 | 1007.9 |
| 20260506181602 | 67 | 102 | 3.0 | 6.0 | 0.00 | 0.00 | 0.00 | 70 | 1008.0 |
| 20260506180615 | 67 | 125 | 3.0 | 6.0 | 0.00 | 0.00 | 0.00 | 70 | 1008.0 |
| 20260506175606 | 67 | 84 | 3.0 | 8.0 | 0.00 | 0.00 | 0.00 | 70 | 1007.9 |
| 20260506174538 | 67 | 87 | 5.0 | 9.0 | 0.00 | 0.00 | 0.00 | 70 | 1007.9 |
| 20260506173551 | 68 | 54 | 4.0 | 8.0 | 0.00 | 0.00 | 0.00 | 70 | 1007.9 |
| 20260506172523 | 67 | 117 | 4.0 | 8.0 | 0.00 | 0.00 | 0.00 | 70 | 1007.8 |
| 20260506171615 | 68 | 121 | 5.0 | 8.0 | 0.00 | 0.00 | 0.00 | 69 | 1007.8 |
| 20260506170609 | 68 | 23 | 6.0 | 8.0 | 0.00 | 0.00 | 0.00 | 67 | 1007.7 |
| 20260506165600 | 69 | 89 | 4.0 | 9.0 | 0.00 | 0.00 | 0.00 | 67 | 1007.8 |
| 20260506164552 | 69 | 40 | 4.0 | 8.0 | 0.00 | 0.00 | 0.00 | 68 | 1007.8 |
| 20260506163544 | 69 | 150 | 7.0 | 11.0 | 0.00 | 0.00 | 0.00 | 69 | 1007.7 |
| 20260506162558 | 68 | 99 | 6.0 | 11.0 | 0.00 | 0.00 | 0.00 | 69 | 1007.8 |
| 20260506161529 | 69 | 150 | 6.0 | 9.0 | 0.00 | 0.00 | 0.00 | 68 | 1007.9 |
| 20260506160600 | 68 | 135 | 6.0 | 8.0 | 0.00 | 0.00 | 0.00 | 67 | 1008.0 |
| 20260506155613 | 69 | 111 | 6.0 | 11.0 | 0.00 | 0.00 | 0.00 | 65 | 1007.9 |
| 20260506154606 | 70 | 92 | 6.0 | 10.0 | 0.00 | 0.00 | 0.00 | 64 | 1007.8 |
| 20260506153558 | 70 | 56 | 8.0 | 12.0 | 0.00 | 0.00 | 0.00 | 63 | 1007.7 |
| 20260506152549 | 71 | 64 | 8.0 | 13.0 | 0.00 | 0.00 | 0.00 | 62 | 1007.8 |
| 20260506151541 | 70 | 64 | 7.0 | 13.0 | 0.00 | 0.00 | 0.00 | 61 | 1007.8 |
| 20260506150534 | 70 | 51 | 7.0 | 14.0 | 0.00 | 0.00 | 0.00 | 62 | 1007.9 |
| 20260506145526 | 70 | 143 | 5.0 | 9.0 | 0.00 | 0.00 | 0.00 | 61 | 1007.9 |
| 20260506144520 | 71 | 358 | 6.0 | 10.0 | 0.00 | 0.00 | 0.00 | 60 | 1007.9 |
| 20260506143631 | 72 | 62 | 7.0 | 15.0 | 0.00 | 0.00 | 0.00 | 59 | 1007.9 |
| 20260506142603 | 72 | 58 | 6.0 | 8.0 | 0.00 | 0.00 | 0.00 | 60 | 1007.8 |
| 20260506141556 | 72 | 100 | 7.0 | 15.0 | 0.00 | 0.00 | 0.00 | 59 | 1008.0 |
| 20260506140548 | 72 | 45 | 4.0 | 8.0 | 0.00 | 0.00 | 0.00 | 58 | 1008.0 |
| 20260506135540 | 72 | 17 | 7.0 | 11.0 | 0.00 | 0.00 | 0.00 | 59 | 1008.1 |
| 20260506134533 | 72 | 150 | 7.0 | 12.0 | 0.00 | 0.00 | 0.00 | 57 | 1008.2 |
| 20260506133524 | 72 | 58 | 7.0 | 13.0 | 0.00 | 0.00 | 0.00 | 59 | 1008.3 |